[keps] orb06292.2l.amsat

Ray Hoad r.hoad at att.net
Thu Oct 19 17:08:37 PDT 2006


SB KEPS @ AMSAT  $ORB06292.N
2Line Orbital Elements 06292.AMSAT

HR AMSAT ORBITAL ELEMENTS FOR AMATEUR SATELLITES IN NASA FORMAT
FROM WA5QGD FORT WORTH,TX October 19, 2006
Send SUBSCRIBE KEPS/UNSUBSCRIBE KEPS to majordomo at amsat.org only
BID: ORB06292.N

DECODE 2-LINE ELSETS WITH THE FOLLOWING KEY:
1 AAAAAU 00  0  0 BBBBB.BBBBBBBB  .CCCCCCCC  00000-0  00000-0 0  DDDZ
2 AAAAA EEE.EEEE FFF.FFFF GGGGGGG HHH.HHHH III.IIII JJ.JJJJJJJJKKKKKZ
KEY: A-CATALOGNUM B-EPOCHTIME C-DECAY D-ELSETNUM E-INCLINATION F-RAAN
G-ECCENTRICITY H-ARGPERIGEE I-MNANOM J-MNMOTION K-ORBITNUM Z-CHECKSUM

TO ALL RADIO AMATEURS BT

AO-07
1 07530U 74089B   06291.72697165 -.00000028  00000-0  10000-3 0  7076
2 07530 101.5540 331.5071 0011928 006.6540 353.4684 12.53571567460864
UO-11
1 14781U 84021B   06292.62956674  .00000283  00000-0  45218-4 0  2035
2 14781 098.2072 305.4905 0008456 221.2118 138.8421 14.79472381214164
RS-10/11
1 18129U 87054A   06291.94533494  .00000057  00000-0  44918-4 0 01213
2 18129 082.9219 236.5940 0013093 104.7353 255.5253 13.72779758968132
RS-15
1 23439U 94085A   06291.82971417 -.00000039  00000-0  10597-3 0 00296
2 23439 064.8205 037.2522 0166092 232.6527 125.9166 11.27551705486484
FO-29
1 24278U 96046B   06291.96846145 -.00000069  00000-0 -32842-4 0 03432
2 24278 098.5205 279.4163 0350945 348.7909 010.5560 13.52924088502288
SO-33
1 25509U 98061B   06291.89462994  .00000188  00000-0  26098-4 0  7707
2 25509 031.4285 149.9341 0354722 117.9229 245.7782 14.28127984416733
VO-52
1 28650U 05017B   06291.61363098 -.00000117  00000-0 -80607-5 0  4563
2 28650 097.8609 002.3848 0026545 322.0348 037.9002 14.81187155 78659
AO-16
1 20439U 90005D   06291.56808677  .00000006  00000-0  17526-4 0 08739
2 20439 098.1905 294.5898 0010532 182.5032 177.6094 14.31736079873978
LO-19
1 20442U 90005G   06292.62543354  .00000037  00000-0  28879-4 0  8062
2 20442 098.1872 305.1093 0011798 178.9000 181.2223 14.31978544874263
AO-27
1 22825U 93061C   06291.52533372  .00000177  00000-0  85959-4 0  5223
2 22825 098.2984 267.3907 0007535 258.8748 101.1603 14.29187320680976
IO-26
1 22826U 93061D   06292.87406749  .00000027  00000-0  26776-4 0  2155
2 22826 098.2936 269.8420 0008066 249.9786 110.0533 14.29431216681242
PO-28
1 22829U 93061G   06291.96780260  .00000109  00000-0  57901-4 0 05002
2 22829 098.2825 270.1745 0009104 224.1419 135.9049 14.30127684681330
GO-32
1 25397U 98043D   06291.79214328 -.00000173  00000-0 -58119-4 0 01380
2 25397 098.4534 344.1049 0001042 172.0572 188.0605 14.23111618429828
MO-46
1 26548U 00057D   06291.85162781  .00000009  00000-0  19474-4 0  6246
2 26548 064.5568 209.2264 0040907 229.6864 130.0668 14.83033538327748
NO-44
1 26931U 01043C   06291.84311134  .00000182  00000-0  10361-3 0  4273
2 26931 067.0527 049.1634 0004888 257.7537 102.3021 14.29456913263601
SO-50
1 27607U 02058C   06291.54358461 -.00000048  00000-0  13993-4 0  1489
2 27607 064.5574 098.6329 0034965 094.3536 266.1549 14.71182408205577
CO-55
1 27844U 03031E   06291.57294470  .00000028  00000-0  33266-4 0 08755
2 27844 098.7225 298.1741 0010669 069.0902 291.1422 14.20463202171172
CO-57
1 27848U 03031J   06291.56324035  .00000036  00000-0  37360-4 0 08397
2 27848 098.7209 297.4552 0010586 070.9576 289.2768 14.20289154171157
AO-51
1 28375U 04025K   06292.68699807  .00000025  00000-0  20544-4 0  6553
2 28375 098.1495 338.9542 0083293 190.5311 169.4136 14.40537360121087
CO-56
1 28941U 06005C   06291.89250795  .00017967  23150-5  21753-3 0  2291
2 28941 098.1686 322.6007 0265571 041.1013 320.9922 15.29157133 36429
NOAA-10
1 16969U 86073A   06292.43530807 -.00000026  00000-0  76099-5 0  3881
2 16969 098.7595 304.3327 0012739 145.8610 214.3398 14.27305982 44880
NOAA-11
1 19531U 88089A   06292.40362551 -.00000187  00000-0 -74106-4 0  3362
2 19531 098.8238 019.4561 0011565 000.1135 000.0047 14.14820114932105
NOAA-12
1 21263U 91032A   06292.41297974 -.00000034  00000-0  44179-5 0  8303
2 21263 098.7416 285.2346 0013613 086.7429 273.5314 14.25510538801942
MET-3/5
1 21655U 91056A   06292.80446712  .00000051  00000-0  10000-3 0  1735
2 21655 082.5558 172.7669 0014180 087.2119 273.0625 13.17007661729762
MET-2/21
1 22782U 93055A   06292.84875793 -.00000006  00000-0 -18757-4 0  6451
2 22782 082.5473 232.5450 0021830 186.4805 173.6073 13.83609700663288
OKEAN-4
1 23317U 94066A   06291.74401118  .00000050  00000-0  33129-5 0   804
2 23317 082.5403 161.7729 0021886 332.1542 027.8501 14.82409793648286
NOAA-14
1 23455U 94089A   06292.22968857  .00000167  00000-0  11271-3 0  3291
2 23455 099.0249 351.7406 0009914 063.7666 296.4554 14.13671160608590
SICH-1
1 23657U 95046A   06292.70012173  .00000273  00000-0  31803-4 0  8830
2 23657 082.5261 301.7775 0022882 317.1242 042.8178 14.81401259600428
NOAA-15
1 25338U 98030A   06292.41033541  .00000017  00000-0  25474-4 0  7083
2 25338 098.5229 291.0330 0010956 016.3916 343.7652 14.24606913438408
RESURS
1 25394U 98043A   06291.80029099 -.00000014  00000-0  12219-4 0  4835
2 25394 098.4796 350.4317 0001476 140.2301 219.8986 14.24114403429990
FENGYUN1
1 25730U 99025A   06291.86184358 -.00000006  00000-0  19793-4 0  8510
2 25730 098.6374 279.7939 0014739 145.6656 214.5470 14.11817387383467
OKEAN-0
1 25860U 99039A   06292.62631404  .00000081  00000-0  19687-4 0  8809
2 25860 097.7333 301.1604 0001911 073.9271 286.2152 14.73396448390075
NOAA-16
1 26536U 00055A   06292.40336277  .00000354  00000-0  21702-3 0   946
2 26536 099.0842 260.5776 0010998 128.0869 232.1320 14.12377626313111
NOAA-17
1 27453U 02032A   06292.20539034 -.00000006  00000-0  16191-4 0  1130
2 27453 098.6105 001.9390 0012542 076.8337 283.4247 14.23818070224420
NOAA-18
1 28654U 05018A   06292.23240211  .00000095  00000-0  77188-4 0  6810
2 28654 098.7985 232.9087 0013574 229.6951 130.3035 14.11001472 72878
HUBBLE
1 20580U 90037B   06291.44675594  .00000494  00000-0  25656-4 0 07382
2 20580 028.4698 326.3355 0003549 057.0627 303.0301 15.00112190703627
UARS
1 21701U 91063B   06291.95279806  .00005928  00000-0  10826-3 0 09000
2 21701 056.9748 278.5038 0106729 087.7215 273.6055 15.44979132828427
PO-34
1 25520U 98064B   06291.78578650  .00000768  00000-0  28292-4 0 06013
2 25520 028.4612 284.2083 0005749 145.1129 214.9883 15.16816277440832
ISS
1 25544U 98067A   06292.81391638  .00015551  00000-0  92945-4 0  8920
2 25544 051.6323 265.3662 0012929 115.4170 244.8700 15.77013746452821
OO-38
1 26063U 00004C   06292.75384495  .00000011  00000-0  23900-4 0  7443
2 26063 100.1990 246.2668 0037194 116.2060 244.2947 14.35780879352546
NO-45
1 26932U 01043D   06292.83051682 -.00000052  00000-0  12162-4 0  4362
2 26932 067.0512 046.3448 0005510 233.8605 126.1986 14.29537271263782
UWE-1
1 28892U 05043C   06291.26685415  .00000174  00000-0  46352-4 0 05819
2 28892 098.1493 187.3956 0017961 144.3736 215.8660 14.59407456051926
CO-58
1 28895U 05043F   06291.25369421  .00000229  00000-0  57996-4 0 05645
2 28895 098.1508 187.5059 0018166 144.2773 215.9642 14.59457764051805
NCUBE2
1 28897U 05043H   06291.62915574  .00000166  00000-0  44534-4 0 01341
2 28897 098.1489 187.8489 0017415 145.0451 215.1909 14.59614422044135
/EX






More information about the Keps mailing list